Location: Dal�� Lhota
(48.7500°N, 14.0167°E)
Time: 08:31:21
(UTC+00:00)

Explorer 7 - Pass Details

Date: 01 August 2021
Orbit: 484 x 676 km, 50.3° (Epoch: 21 September)

Event Time Altitude Azimuth Distance (km) Brightness Sun altitude
Rises 06:56:04 0° 274° (W) 2,611 9.7 30.7°
Reaches altitude 10° 06:58:13 10° 277° (W) 1,750 8.9 31.1°
Maximum altitude 07:02:11 69° 1° (N) 579 7.4 31.7°
Drops below altitude 10° 07:06:24 10° 86° (E) 1,860 10.9 32.4°
Sets 07:08:44 0° 88° (E) 2,793 11.5 32.8°
